IZ1CYF-3 Weather Reports


time (UTC)temp
C
wind
direction
speed
KPH
gust
KPH
rain 1hr
cm
rain 24hr
cm
rain mn
cm
humidity
%
barometer
mb
20260503130159 21 0.0 0.0 0.00 0.00 0.00 41 1017.5
20260503120159 18 0.0 0.0 0.00 0.00 0.00 44 1019.8
20260503110159 20 0.0 0.0 0.00 0.00 0.00 39 1018.8
20260503100159 24 0.0 0.0 0.00 0.00 0.00 34 1017.1
20260503090159 22 0.0 0.0 0.00 0.00 0.00 36 1018.0
20260503080159 17 0.0 0.0 0.00 0.00 0.00 46 1020.6
20260503070159 16 0.0 0.0 0.00 0.00 0.00 48 1021.1
20260503060159 15 0.0 0.0 0.00 0.00 0.00 48 1021.4
20260503053159 15 0.0 0.0 0.00 0.00 0.00 48 1021.9
20260503050159 13 0.0 0.0 0.00 0.00 0.00 53 1022.2
20260503043159 13 0.0 0.0 0.00 0.00 0.00 52 1022.2
20260503040159 12 0.0 0.0 0.00 0.00 0.00 52 1022.8
20260503033159 12 0.0 0.0 0.00 0.00 0.00 56 1023.3
20260503030159 11 0.0 0.0 0.00 0.00 0.00 55 1023.6
20260503023159 11 0.0 0.0 0.00 0.00 0.00 42 1023.7
20260503020159 10 0.0 0.0 0.00 0.00 0.00 46 1024.3
20260503013159 11 0.0 0.0 0.00 0.00 0.00 46 1024.0
20260503010159 11 0.0 0.0 0.00 0.00 0.00 47 1024.2
20260503003159 12 0.0 0.0 0.00 0.00 0.00 51 1024.2
20260503000159 10 0.0 0.0 0.00 0.00 0.00 58 1025.1
20260502233159 12 0.0 0.0 0.00 0.00 0.00 52 1024.8
20260502230159 12 0.0 0.0 0.00 0.00 0.00 52 1024.9
20260502223159 12 0.0 0.0 0.00 0.00 0.00 52 1024.9
20260502220159 13 0.0 0.0 0.00 0.00 0.00 41 1024.2
20260502213159 14 0.0 0.0 0.00 0.00 0.00 43 1024.1
20260502210159 13 0.0 0.0 0.00 0.00 0.00 50 1024.6
20260502203159 13 0.0 0.0 0.00 0.00 0.00 55 1024.8
20260502200159 13 0.0 0.0 0.00 0.00 0.00 44 1024.6
20260502193159 13 0.0 0.0 0.00 0.00 0.00 51 1024.8
20260502190159 14 0.0 0.0 0.00 0.00 0.00 43 1023.9